Terminal Aerodrome Forecast
Issued by NWS Anchorage, AK

Home | Current Version | Previous Version | Text Only | Print | Product List | Glossary On
Versions: 1 2 3 4 5 6 7 8 9 10 11 12 13 14 15 16 17 18 19 20 21 22 23 24 25 26 27 28 29 30 31 32 33 34 35 36 37 38 39 40 41 42 43 44 45 46 47 48 49 50
000
FTAK31 PANC 210522
TAFANC
TAF
PANC 210522Z 2106/2212 VRB03KT P6SM VCSH SCT015 BKN090
      TEMPO 2106/2108 5SM -SHSN SCT015 BKN025
     FM211600 15008KT P6SM SCT050 BKN100
     FM212100 15008G18KT P6SM VCSH SCT045 BKN070=

USA.gov is the U.S. government's official web portal to all federal, state and local government web resources and services.